sat.trackr.live / text

‹ back to catalog

ONEWEB-0473

NORAD 51653 · 2022-012AH

PAYLOAD ACTIVE UNKNOWN

§ Identity

Operator
Country
UK
Launch date
2022-02-10
Launch site
FRGUI
Launch vehicle
Mass (kg)
RCS (m²)

Purposes: comms

External: N2YO · Heavens-Above · Gunter

§ Orbital elements

Epoch: 2026-05-25T02:48:59.980032Z

Period
109.89 min
Inclination
87.8852°
Eccentricity
0.0001928
Mean motion
13.10371770 rev/d
Perigee alt
1,220.3 km
Apogee alt
1,223.2 km
Semi-major
7,599.9 km
B*
-1.7955e-3
RAAN
40.8695°
Arg perigee
76.9223°
Mean anomaly
283.2119°
Rev number
20,628

§ Raw data

ONEWEB-04731 51653U 22012AH  26145.11736088 -.00000614  00000+0 -17955-2 0  99902 51653  87.8852  40.8695 0001928  76.9223 283.2119 13.10371770206285

JSON: /api/v1/satellites/51653 · /tle

For live sub-satellite position, see the globe view (requires WebGL).

§ Visibility from observer

Set your observer location to see the next 7 days of passes ≥ 10°. The values pass through the URL so the page stays shareable.

No JS? Fill the form by hand. The geolocation button needs JavaScript.